Theta_e
311 311 310 310 309 308 307 306 306 305 304 304 304 303 303 302 301 300 299 299 299 298 297 297 297 297 296 295 295 294 294 293 293 294 294 293 292 291 291 291 291 291 291 291 291 290 290 290 290 291 291 290 290 289 288 288 287 287 287 287 287 287 286 286 286 286 286 286 286
311 310 310 310 309 308 307 306 306 306 305 305 304 303 303 302 301 300 300 300 299 298 298 298 298 297 296 295 295 294 294 293 293 293 293 292 291 291 291 291 291 291 291 290 290 290 290 290 290 290 291 290 289 288 288 287 287 287 287 286 287 287 287 286 286 286 286 286 286
310 310 309 308 308 307 306 305 305 305 305 305 304 303 303 303 302 301 300 300 299 300 300 298 298 297 296 295 294 294 294 293 293 292 292 292 291 291 291 291 291 291 291 290 290 290 290 290 290 291 291 290 289 288 288 288 288 287 286 286 287 287 287 287 286 286 286 286 286
309 309 308 307 306 306 306 305 305 305 305 305 304 303 303 302 301 301 301 300 299 299 299 297 297 296 296 295 294 294 294 294 293 292 291 291 291 291 291 291 291 290 290 289 289 289 289 290 290 291 290 289 288 288 288 288 288 287 287 287 287 287 287 287 287 287 287 287 286
309 308 308 307 306 306 306 305 305 305 305 304 303 303 302 302 301 301 300 298 297 297 297 297 296 296 295 294 293 293 293 294 294 293 291 291 291 291 291 291 291 290 290 289 289 289 289 290 290 290 289 288 288 288 287 287 287 286 287 287 287 287 287 287 287 287 287 287 286
309 308 307 307 306 306 306 306 305 305 304 304 303 303 302 302 301 300 299 298 297 297 297 297 297 296 295 293 293 293 293 292 293 292 291 291 291 291 291 291 290 290 289 289 289 288 288 289 290 289 289 289 287 287 287 287 286 286 286 287 287 287 287 287 287 287 287 286 285
308 308 307 306 306 306 306 306 306 305 305 304 303 302 302 301 300 299 298 298 297 297 297 297 296 295 294 293 292 292 292 292 291 291 291 291 291 291 290 290 290 289 289 289 289 288 288 288 289 290 290 290 289 288 287 287 286 286 286 286 287 287 287 286 286 287 286 285 285
308 307 307 306 306 306 306 306 306 305 304 304 303 302 301 300 299 298 297 297 297 297 296 296 294 293 293 292 292 292 291 291 291 291 290 290 290 290 290 289 289 289 289 288 288 288 288 288 289 289 289 289 289 288 287 286 286 285 285 285 286 286 286 285 285 286 286 285 284
307 307 306 306 306 306 306 306 305 305 305 304 304 302 301 299 298 297 297 297 297 296 295 294 293 292 292 292 291 291 291 291 290 290 290 290 290 289 289 289 288 288 288 288 288 288 288 288 288 288 288 289 289 287 286 286 285 285 285 285 286 286 286 285 285 285 285 285 284
306 306 306 306 306 306 306 306 305 305 305 304 303 302 300 299 298 297 297 297 297 296 294 293 292 292 291 291 291 290 290 290 290 290 290 290 289 289 288 288 288 288 288 288 287 287 287 288 287 287 287 287 287 286 286 286 285 285 285 286 286 285 285 285 285 285 285 285 284
306 306 306 306 306 306 306 305 305 305 305 304 302 300 299 299 297 297 297 296 296 294 293 293 292 292 291 291 290 290 290 290 290 290 289 289 289 289 288 288 288 287 287 287 287 287 287 287 287 286 286 287 286 286 285 285 285 285 285 285 285 285 284 285 285 285 284 285 284
306 306 306 306 306 306 306 305 305 304 303 302 299 298 297 296 296 296 296 295 294 293 293 292 292 291 291 290 290 290 290 290 289 289 289 289 288 288 288 287 287 287 287 287 287 287 287 286 286 286 286 286 286 286 285 285 285 285 285 284 284 284 284 284 284 284 284 284 283
306 306 306 306 306 305 305 305 304 303 301 299 297 297 296 295 295 295 295 294 293 293 292 292 291 291 290 290 290 290 290 289 289 289 289 289 288 288 287 287 287 287 287 287 286 287 287 286 286 286 285 285 285 286 286 285 285 285 284 284 284 284 284 284 283 283 283 283 283
306 305 305 305 305 305 304 304 303 300 298 296 295 295 295 294 295 295 294 293 293 292 292 291 291 291 291 290 290 289 289 289 289 289 289 288 288 287 287 287 287 287 286 287 287 287 286 286 286 286 285 285 285 285 285 285 285 285 285 284 284 284 284 283 283 283 283 283 283
305 305 305 304 304 304 303 302 300 297 295 294 294 294 294 294 294 294 293 293 292 292 291 291 291 291 290 290 289 289 289 289 288 288 288 288 287 287 286 286 286 286 287 287 287 286 286 286 286 285 285 285 285 285 285 285 285 285 284 284 284 284 284 283 283 283 283 282 282
304 304 304 304 303 303 301 299 297 295 294 293 293 293 293 293 293 293 293 292 292 291 291 290 290 290 290 290 289 289 288 288 288 288 288 287 287 286 286 286 286 287 287 287 287 286 286 286 286 285 285 285 285 285 285 285 285 285 284 284 284 284 284 284 284 283 283 283 282
303 303 303 303 302 300 299 296 295 294 293 293 293 293 293 293 293 293 293 292 292 291 290 290 290 289 289 289 289 288 288 288 287 287 287 287 287 286 286 286 287 287 287 286 286 286 286 285 285 285 285 285 285 285 285 285 285 285 285 284 284 284 284 285 284 284 283 283 283
302 302 302 302 300 298 296 294 293 293 292 292 292 293 293 293 293 293 293 292 291 290 290 289 289 289 288 288 288 288 288 287 287 287 286 287 287 286 286 287 287 287 286 286 286 285 285 285 285 285 285 285 285 285 285 285 285 285 285 285 284 284 284 284 284 284 283 283 284
301 301 301 300 298 296 295 294 293 292 292 292 292 292 292 292 292 292 292 291 290 290 289 289 288 288 288 288 288 288 288 287 286 286 286 286 286 287 287 287 287 286 286 286 285 285 285 285 285 285 285 285 285 285 285 285 285 285 285 285 285 285 284 284 284 283 283 283 283
301 300 299 298 296 295 294 293 292 292 292 292 292 291 291 291 291 291 290 289 289 289 288 288 288 288 288 288 288 288 287 287 286 286 286 286 286 286 286 286 286 286 286 285 285 285 285 285 285 285 285 285 285 285 285 285 285 285 285 285 285 285 284 284 284 283 283 283 283
300 299 298 296 294 293 293 292 292 292 292 291 291 291 291 290 290 290 289 289 289 288 288 288 288 288 287 287 287 287 286 287 286 286 286 286 286 286 286 286 286 286 285 285 285 285 285 285 285 285 285 286 286 286 286 286 286 286 286 285 285 285 284 284 284 283 283 283 282
299 297 295 293 293 293 293 292 292 292 291 291 291 291 290 290 289 289 289 289 289 288 288 288 288 287 287 287 286 286 286 286 285 285 285 286 286 286 286 286 286 285 285 285 285 285 285 286 286 286 287 287 287 287 287 287 286 286 285 285 285 284 284 284 283 283 283 282 282
296 294 293 293 293 293 293 292 292 291 291 291 290 290 290 289 289 289 289 289 289 288 288 288 287 287 287 286 286 286 286 285 285 285 285 285 285 285 286 286 285 285 285 286 286 286 286 286 287 287 287 287 287 287 287 286 286 285 284 284 284 284 284 283 283 283 283 282 282
293 293 292 293 293 292 292 291 291 291 290 290 290 289 289 289 289 288 288 288 288 288 288 288 287 287 286 286 286 285 285 285 285 285 285 285 285 285 285 285 285 286 286 287 287 287 287 287 287 287 288 287 287 287 286 286 285 284 284 283 283 283 283 283 283 283 283 283 282
292 292 293 292 292 292 291 291 290 290 290 290 289 289 289 289 288 288 288 288 288 287 287 287 286 286 286 286 285 285 285 285 285 285 285 285 285 285 285 285 285 286 287 288 289 290 290 290 289 289 288 287 287 286 286 285 284 284 283 283 283 283 283 283 283 283 283 282 282
292 292 292 292 291 291 291 290 290 290 290 289 289 288 288 288 288 288 288 287 287 287 287 286 286 286 286 285 285 286 286 286 285 285 285 285 285 285 285 285 286 287 287 289 290 290 290 291 291 290 289 287 286 285 285 284 284 283 283 283 283 283 283 283 283 283 282 282 281
292 292 291 291 291 290 290 290 290 289 289 289 288 288 288 288 288 287 287 287 287 286 286 286 286 287 287 286 286 286 286 285 285 285 285 285 285 285 285 285 286 287 288 289 289 290 290 291 291 291 290 287 285 285 284 283 283 283 283 283 283 283 282 282 282 282 282 281 280
292 291 290 290 290 289 289 289 289 288 288 288 288 287 287 287 287 287 286 286 286 286 286 285 286 286 286 286 285 285 285 285 285 285 285 285 285 285 285 286 286 287 288 289 289 290 290 290 291 291 290 288 285 284 283 283 283 283 283 282 282 282 282 282 282 281 281 280 280
291 290 290 289 289 289 289 288 288 288 288 288 287 287 287 287 287 286 286 286 286 285 285 285 285 286 285 285 285 285 285 285 285 285 285 285 285 285 286 286 287 288 289 290 289 289 289 290 290 290 290 290 286 284 283 283 283 282 282 282 282 282 282 281 281 281 280 280 280
290 289 289 289 288 288 288 288 288 288 288 288 287 287 287 286 286 286 286 285 285 285 285 285 285 285 285 285 285 285 285 285 285 285 285 285 285 285 286 286 287 288 289 289 289 289 289 289 289 290 290 290 288 285 282 282 282 282 282 282 282 282 282 281 281 280 280 280 280
289 289 288 288 288 288 288 288 287 287 287 287 287 287 286 286 286 286 285 285 285 286 286 286 285 285 285 285 285 285 285 285 285 285 285 285 285 286 286 286 286 287 289 289 289 289 289 289 289 289 289 289 288 285 282 282 282 282 282 282 282 282 281 281 281 280 280 280 280
289 289 288 288 288 287 287 287 287 287 287 287 286 286 286 286 285 285 285 285 285 285 285 285 285 284 285 285 285 285 285 285 285 285 285 285 285 285 285 285 286 287 288 289 288 288 288 288 288 289 289 289 288 285 283 282 282 282 282 282 282 281 281 281 280 280 280 280 280
289 289 288 287 287 287 287 287 287 287 287 286 286 286 285 285 285 285 285 285 285 285 284 284 284 284 284 284 285 285 285 285 285 285 286 286 285 285 285 284 285 286 288 288 288 288 288 288 288 288 289 289 287 285 282 282 282 282 282 281 281 281 281 280 280 280 280 280 279
289 288 288 287 287 287 287 287 287 286 286 286 285 285 285 284 284 285 285 285 285 285 285 284 284 284 285 285 285 285 285 286 285 285 285 285 285 284 284 282 283 285 288 288 288 288 288 288 288 288 288 289 286 283 282 281 281 281 281 281 280 280 280 280 280 280 280 279 279
288 287 287 287 287 287 286 286 286 286 285 285 284 284 284 284 284 284 285 285 285 285 284 285 285 285 285 285 285 286 285 285 285 284 284 284 284 283 283 281 282 285 288 288 287 287 287 287 287 288 288 288 284 282 281 281 280 280 280 280 280 280 280 280 279 279 279 279 279
288 287 287 287 286 286 286 286 285 285 284 284 284 284 284 284 284 284 285 286 285 284 284 284 285 285 285 285 285 285 285 284 284 283 283 283 282 281 281 280 281 284 287 288 287 287 287 287 287 288 288 286 283 281 280 280 280 280 280 279 280 280 280 279 279 279 279 279 280
288 287 287 286 286 286 285 285 284 284 284 283 283 283 283 284 284 284 285 285 284 284 284 285 285 285 285 285 284 284 284 284 283 283 282 282 281 280 279 279 279 282 286 287 287 287 287 287 287 287 287 284 281 280 280 280 280 279 279 279 279 279 279 279 279 279 279 280 281
288 288 287 286 285 285 285 284 284 283 283 283 283 283 283 283 284 284 285 285 284 284 284 285 285 285 285 285 284 284 284 283 283 282 281 281 280 280 279 279 279 281 284 286 287 287 287 287 287 287 286 283 281 280 279 279 279 279 279 279 279 279 279 279 279 279 279 280 284
288 287 286 285 285 284 284 284 284 283 283 283 283 283 284 284 284 284 285 286 285 285 284 284 284 284 285 285 284 283 283 282 282 282 281 279 280 281 281 279 278 280 283 286 286 287 287 287 287 287 286 284 281 279 279 279 279 279 279 279 278 278 278 278 279 279 279 280 285
287 286 285 285 284 284 284 284 284 283 283 283 283 283 284 284 284 285 285 285 285 285 284 284 284 284 284 285 283 282 282 281 281 281 280 280 281 282 283 279 278 279 282 285 286 286 286 287 287 287 286 284 281 279 279 279 279 278 278 278 278 278 278 278 279 279 279 279 282
286 285 285 285 284 284 284 283 283 284 284 283 283 284 284 285 285 285 285 284 284 284 284 284 284 284 284 284 282 281 280 280 280 280 280 281 281 282 282 279 278 278 280 283 285 286 286 286 287 287 286 284 281 280 279 279 278 278 277 277 278 278 278 278 279 279 279 279 279
Wind_Speed
12 11 10 10 9 8 8 7 7 7 7 8 9 10 10 9 9 8 7 6 6 6 6 6 6 6 7 9 8 8 8 8 9 9 9 8 7 7 7 7 7 7 7 6 6 5 5 4 3 2 2 2 2 2 2 2 2 2 2 2 1 1 1 1 0 0 1 1 1
12 12 11 11 10 9 8 7 7 7 7 7 8 9 9 9 9 8 7 7 6 6 5 5 6 7 8 9 8 8 8 8 9 9 9 8 7 7 7 7 7 7 7 6 5 5 4 4 3 2 2 2 2 2 2 2 2 2 2 1 1 1 1 1 0 1 1 0 0
12 12 11 11 10 10 9 8 8 9 9 8 8 8 7 7 7 7 7 8 6 6 5 5 6 8 9 10 8 8 8 8 9 9 9 8 7 7 7 7 7 7 6 6 5 5 5 4 4 3 2 2 2 2 2 2 2 2 2 1 1 1 1 1 0 0 0 0 0
12 12 11 11 12 12 10 9 10 10 10 8 9 8 7 7 7 7 8 8 7 6 6 6 8 8 9 9 9 8 8 8 9 10 9 8 7 7 7 7 7 7 6 5 5 5 5 4 3 3 2 2 2 2 2 2 2 2 2 1 1 1 1 0 0 0 0 0 0
12 11 11 11 12 11 11 10 11 11 10 9 9 8 8 8 8 8 7 7 6 6 7 8 8 8 8 9 9 9 8 9 10 9 9 8 7 7 7 7 7 6 6 5 5 5 5 4 3 2 2 2 2 2 2 2 3 2 2 1 1 1 1 0 0 0 0 0 0
12 11 11 10 11 11 10 11 12 12 11 10 11 11 10 9 9 8 7 7 7 8 9 10 9 9 9 9 9 9 8 8 9 9 9 8 7 7 7 7 7 6 5 5 5 5 5 4 3 2 2 2 1 1 2 3 3 2 2 1 1 1 1 1 1 0 1 0 0
12 12 12 11 12 12 11 12 12 12 11 11 13 13 12 10 9 9 9 8 8 8 9 9 9 9 10 10 9 9 8 8 9 9 9 8 7 7 7 7 7 6 6 5 5 4 4 4 3 2 2 2 1 1 1 3 3 2 2 0 0 1 1 1 1 1 1 0 0
12 12 12 12 13 13 13 13 12 11 11 10 13 14 13 11 11 11 10 9 8 8 8 8 9 10 10 10 9 9 9 9 9 9 8 7 7 7 7 7 7 6 6 5 4 4 3 3 3 2 2 2 1 1 1 2 3 2 1 0 0 0 1 1 1 1 1 1 1
11 12 12 12 12 13 13 13 13 12 11 12 13 13 12 11 12 12 11 9 8 8 9 8 10 10 10 10 10 9 9 9 9 9 8 7 7 7 7 7 7 6 5 4 4 4 4 3 2 2 2 2 1 1 1 2 3 2 1 1 0 1 1 0 1 1 1 1 2
12 12 12 12 12 13 13 13 12 12 12 13 14 13 12 11 12 11 10 9 9 9 9 9 10 11 11 10 9 9 8 9 9 9 8 7 7 7 7 6 6 6 5 4 4 4 4 3 2 2 2 2 2 1 1 2 2 2 1 1 1 1 1 1 0 1 1 1 2
12 12 12 12 12 13 13 13 12 12 12 12 13 12 11 11 11 10 10 9 10 11 10 10 10 11 10 10 9 8 8 8 8 8 8 7 7 7 7 6 6 6 5 4 3 3 3 3 2 2 2 2 2 2 1 2 2 2 2 1 1 1 1 2 1 1 1 2 2
13 13 12 12 13 13 13 12 11 11 11 12 12 11 10 10 11 11 11 11 12 11 10 9 10 10 10 9 8 8 8 9 9 8 8 7 7 7 7 6 6 6 5 4 3 3 3 3 3 2 2 1 1 1 1 1 2 2 1 1 1 1 2 2 2 2 1 1 1
13 13 13 13 13 13 13 12 11 11 11 11 11 10 9 10 11 12 13 13 12 10 9 9 9 9 9 8 8 8 8 9 8 8 7 7 7 7 7 6 6 6 5 4 3 3 3 3 3 2 2 1 1 1 1 1 1 1 1 1 1 1 2 2 2 2 1 0 0
14 14 14 14 14 13 12 12 10 10 10 10 10 10 10 10 11 12 12 12 11 10 9 9 8 8 8 8 8 9 9 9 8 8 7 7 7 7 6 6 6 6 5 4 3 3 3 3 3 2 2 1 1 1 1 1 1 0 0 1 1 2 2 2 2 1 1 1 1
14 14 14 14 14 13 12 11 9 9 10 10 10 10 10 10 11 11 11 11 11 10 9 9 8 8 8 9 9 9 9 9 8 8 7 7 7 7 6 6 6 6 5 4 4 3 3 3 3 2 2 1 1 1 1 1 1 1 1 1 2 2 2 2 2 2 1 1 1
14 15 15 14 14 12 11 10 9 9 9 10 10 10 10 9 10 11 11 11 10 9 9 9 9 8 8 9 9 9 9 8 8 8 7 7 7 7 6 6 6 5 5 5 4 3 3 3 2 2 2 1 1 1 1 1 1 1 1 2 2 2 2 2 2 2 2 1 1
15 15 14 14 13 12 11 10 9 9 9 10 10 10 9 9 9 10 11 10 9 9 9 10 9 9 9 8 8 8 8 8 7 7 7 7 7 7 6 6 5 5 5 4 4 3 3 2 2 2 2 1 1 0 1 1 1 2 2 2 2 2 2 2 2 2 2 2 2
15 14 14 14 13 12 12 11 10 10 10 11 11 10 10 9 10 10 10 9 9 10 11 10 9 9 9 9 8 7 6 7 7 7 7 7 7 7 6 6 6 5 5 4 4 3 3 2 2 2 1 1 0 0 1 1 2 2 2 3 3 3 3 3 2 2 2 2 2
14 14 14 13 13 13 12 12 11 11 11 11 11 11 10 11 11 10 10 9 9 10 11 11 10 9 9 9 8 7 6 7 7 7 7 7 7 7 6 6 6 5 5 4 4 3 3 3 2 2 2 1 1 1 1 2 2 2 3 3 3 3 3 3 2 2 2 2 2
14 14 14 13 13 12 12 12 12 12 11 11 12 12 12 12 12 11 11 10 10 10 11 11 11 10 9 9 9 8 6 6 7 8 8 7 7 7 6 6 5 5 4 4 3 3 3 3 3 3 2 2 2 2 2 3 3 3 3 3 3 3 3 3 2 2 2 2 2
14 13 13 12 12 12 12 12 12 12 12 12 12 12 12 12 12 12 11 11 11 11 11 11 11 10 10 10 9 8 7 6 7 8 8 7 7 6 6 5 5 4 4 4 4 4 4 4 4 3 3 3 3 3 3 3 3 3 3 3 3 3 3 2 2 2 2 2 2
13 12 12 12 12 12 12 12 12 13 13 13 13 12 12 12 12 11 11 11 11 11 11 11 11 10 10 10 9 9 7 6 7 7 7 7 6 6 5 5 5 5 5 5 5 5 5 5 4 4 4 4 4 4 4 4 4 4 4 4 4 4 3 3 2 2 2 1 1
12 12 12 13 13 13 13 13 13 13 13 13 13 12 12 12 12 11 11 11 11 11 11 10 10 10 10 9 9 9 8 7 7 7 6 6 5 5 4 4 5 5 6 5 5 5 5 4 4 4 4 4 4 5 5 5 5 5 5 5 5 5 5 4 3 3 2 2 2
13 13 12 12 14 14 14 14 14 14 14 14 13 12 12 12 12 11 11 11 12 12 11 10 9 9 9 9 9 9 8 8 8 7 6 6 5 4 4 4 5 5 5 4 4 4 4 3 3 3 3 3 4 4 4 5 5 5 5 5 6 6 6 5 5 4 3 3 2
14 14 14 14 14 14 14 14 14 14 14 13 12 12 12 12 11 12 12 12 12 12 11 11 10 9 9 8 8 8 8 8 7 7 6 5 5 4 4 4 5 4 4 4 5 6 5 3 2 2 2 2 3 3 3 4 4 5 5 5 6 6 6 6 5 5 4 3 2
15 15 15 15 15 15 15 15 14 14 13 12 12 12 11 11 12 12 13 13 12 12 11 10 9 8 8 7 7 7 7 6 6 6 6 5 4 4 4 4 4 4 4 5 6 6 5 4 4 3 2 1 2 2 3 3 4 4 5 5 5 6 6 6 5 5 4 3 2
16 16 16 15 16 16 15 15 14 13 12 12 12 12 11 11 12 12 13 13 12 11 10 9 8 8 7 7 7 8 7 6 5 5 5 5 4 4 3 4 4 4 4 5 6 5 5 4 5 4 3 2 1 2 2 3 4 4 5 5 5 6 6 6 6 5 3 2 2
16 16 16 16 16 16 15 14 14 13 12 12 12 12 12 12 13 13 12 12 11 10 8 7 6 6 5 6 7 7 7 5 5 5 5 4 4 4 4 4 4 4 5 5 5 5 4 5 5 5 5 4 2 1 2 3 3 4 4 5 5 5 6 6 5 3 2 2 2
16 16 16 17 17 16 15 14 13 13 13 13 13 13 13 13 13 12 12 11 10 9 7 6 5 5 5 6 6 6 6 5 4 4 4 4 3 3 4 4 5 5 5 5 5 4 4 5 5 6 6 6 3 2 2 2 3 3 4 4 5 5 6 6 4 3 2 1 1
15 16 16 16 16 15 15 14 13 13 12 12 13 13 13 13 12 12 12 11 10 8 7 6 6 6 6 6 5 5 4 4 3 3 3 4 3 3 3 4 4 4 4 5 4 4 4 5 6 6 7 7 5 3 2 2 3 3 4 4 5 6 6 6 5 3 2 1 1
14 15 15 15 15 15 14 14 13 13 12 12 12 12 12 12 12 11 10 9 9 8 8 7 7 7 7 5 5 4 4 4 3 4 4 4 4 3 2 2 4 4 4 4 4 4 4 5 6 7 8 8 6 4 3 3 3 4 4 5 5 6 7 6 5 3 2 1 1
14 14 14 14 14 14 14 14 14 13 13 13 13 13 13 12 11 10 9 8 8 8 8 7 8 7 6 5 5 4 4 4 4 4 4 3 3 2 1 1 3 4 4 4 3 4 5 6 6 7 8 9 7 5 3 3 4 4 5 6 6 7 6 5 4 3 2 2 1
15 14 14 13 13 13 13 13 13 13 13 13 13 13 12 12 10 10 9 8 8 7 7 7 7 6 5 5 4 4 4 4 4 4 3 2 2 1 1 1 3 4 4 3 3 4 5 6 7 8 9 9 7 5 4 4 4 4 5 5 6 6 5 4 3 2 2 2 1
15 14 13 13 13 12 13 13 13 13 13 13 13 12 12 11 11 10 9 7 6 6 6 6 5 5 5 4 4 4 4 4 3 3 2 2 1 1 1 1 2 3 4 3 3 4 5 6 7 8 9 9 6 5 4 4 4 5 5 6 6 5 5 4 3 2 1 1 1
15 14 13 13 13 13 13 13 13 13 13 13 12 12 11 10 10 9 8 7 6 6 5 5 5 5 5 5 4 4 4 4 3 3 2 2 2 2 2 1 1 3 3 3 3 4 5 6 7 8 9 8 5 4 4 5 5 5 6 6 6 5 5 4 2 2 1 2 2
14 13 13 13 13 13 13 13 13 13 13 13 12 11 10 9 8 7 7 7 7 6 6 5 5 4 4 4 4 4 4 3 3 2 2 2 2 2 2 2 2 2 2 3 3 4 5 6 7 8 8 6 4 3 4 4 4 5 5 6 5 5 4 3 2 2 3 3 3
13 13 14 13 13 13 13 13 13 13 13 12 11 10 9 8 7 6 6 6 6 6 5 5 5 5 4 4 3 3 3 3 2 2 2 2 2 2 2 2 2 2 3 3 4 4 5 6 8 8 7 4 3 3 3 4 4 4 5 5 5 5 4 3 3 3 3 4 5
13 13 13 13 12 12 12 12 13 13 12 11 10 8 7 7 6 5 5 5 5 5 5 5 5 4 4 4 3 3 3 3 2 2 2 2 2 3 2 2 2 3 3 4 4 5 6 7 8 8 6 3 3 3 3 3 4 4 4 5 4 4 3 3 3 3 4 5 7
12 12 12 12 12 12 12 12 12 12 11 11 9 8 7 6 5 5 5 5 5 5 5 4 4 4 3 4 3 3 3 2 2 2 2 2 2 3 2 1 1 2 3 4 5 6 6 7 8 8 7 4 2 2 3 3 4 4 4 4 4 3 3 3 3 4 4 5 9
12 12 12 12 13 13 13 12 12 11 10 9 9 8 6 5 5 5 5 5 5 5 5 4 4 3 3 3 3 2 2 2 2 2 2 2 2 3 2 1 0 1 2 4 5 6 7 7 8 8 7 3 2 2 2 3 3 4 4 4 3 3 4 4 4 4 4 5 7
11 12 12 13 12 12 12 12 11 10 9 8 8 6 5 5 4 4 4 4 5 4 4 4 4 3 3 2 2 2 1 1 1 2 2 2 2 2 2 2 1 0 1 3 5 6 7 7 7 8 7 3 2 2 2 2 3 3 4 4 4 4 4 4 4 4 4 5 5
Wind_Direction
142 145 147 148 146 145 143 143 143 144 147 149 151 151 153 157 160 160 158 157 154 151 149 149 144 140 138 140 140 139 137 134 130 128 127 128 129 128 126 123 123 124 126 128 126 124 120 116 110 100 91 90 91 93 95 102 104 102 98 98 106 111 111 107 156 232 230 201 180
141 143 143 143 141 140 138 138 140 144 147 149 149 150 152 158 159 157 156 158 154 148 142 139 137 136 138 139 138 138 137 134 130 127 125 126 127 127 125 124 125 127 128 128 126 124 122 120 116 109 98 90 90 95 104 118 113 108 104 109 125 123 118 118 190 240 245 234 181
138 139 140 140 140 139 139 139 142 145 147 146 145 145 147 153 153 154 155 156 147 139 134 135 138 138 138 136 136 136 137 135 129 126 124 126 127 127 127 127 127 127 128 127 126 125 125 123 121 119 115 108 106 115 126 128 116 111 111 123 124 114 109 129 193 215 217 98 68
134 136 138 140 140 140 140 140 143 144 144 141 139 140 145 152 152 153 152 147 139 136 139 142 141 139 136 133 134 136 136 134 127 124 123 126 129 130 129 128 127 127 126 124 124 123 122 121 119 121 123 124 131 138 142 133 119 114 115 123 104 101 105 141 194 188 148 112 95
133 135 138 138 137 136 136 138 141 142 141 138 139 144 150 154 154 152 148 141 143 145 147 145 140 136 132 131 134 135 135 131 126 123 124 128 131 131 130 127 125 123 121 120 119 117 115 112 111 112 116 122 132 141 139 128 117 112 109 102 101 111 129 167 202 172 112 92 73
132 133 133 133 131 130 132 137 141 142 141 141 145 150 155 157 156 152 147 145 146 145 144 141 136 131 130 131 135 136 135 130 125 123 125 129 132 131 127 123 120 118 115 114 112 110 108 107 105 102 100 97 96 109 115 110 106 101 96 91 132 151 162 187 193 156 113 96 357
129 130 130 130 130 131 134 140 141 141 141 144 151 155 158 157 152 148 144 143 142 142 142 140 136 134 135 136 138 138 136 130 124 123 126 130 132 130 127 122 118 115 114 113 111 109 108 108 108 104 96 88 80 79 90 99 100 99 94 91 181 173 167 184 180 156 135 168 240
124 126 128 130 131 133 137 141 142 143 144 148 155 157 156 151 146 142 139 137 140 143 143 139 139 139 139 139 140 139 135 128 124 123 126 130 131 128 125 121 119 118 119 119 117 115 112 109 110 110 108 105 102 100 103 107 105 105 106 125 279 235 176 175 164 156 156 188 224
123 125 128 129 132 135 139 141 143 145 148 151 154 154 152 146 141 138 137 139 143 144 142 138 139 139 138 137 138 137 134 128 124 125 127 130 130 127 124 121 121 121 123 123 122 120 115 109 109 111 115 119 129 137 131 117 114 117 123 157 281 295 289 205 164 159 170 187 222
126 128 130 131 134 137 139 141 144 146 149 151 151 149 146 142 139 138 138 140 142 142 141 140 139 138 136 135 135 134 130 125 123 125 128 130 129 127 125 123 124 124 124 124 120 115 112 108 109 111 116 123 135 142 138 123 124 130 145 167 219 274 287 289 253 208 204 216 227
129 131 133 134 137 138 140 142 145 147 148 149 147 144 142 139 137 136 137 139 140 141 141 140 138 136 134 133 133 130 126 121 122 125 128 130 129 127 125 124 125 123 121 117 110 105 104 103 106 110 113 121 132 139 138 132 135 146 163 183 199 231 260 274 265 248 232 225 225
132 133 134 136 139 140 142 144 146 148 147 145 142 140 138 136 135 135 136 138 139 139 139 137 135 133 132 130 129 126 122 119 121 124 127 128 127 125 123 122 121 118 115 109 101 97 95 96 98 99 103 107 118 128 137 138 142 153 172 197 203 221 242 256 255 248 231 211 210
134 135 136 137 140 142 144 146 147 146 143 138 136 134 133 133 134 135 137 138 137 137 135 133 130 128 127 127 125 122 119 118 121 124 126 126 124 122 120 118 115 113 109 104 98 93 91 90 90 90 88 79 77 85 102 116 124 138 169 222 235 242 247 254 255 254 247 214 222
134 135 137 139 142 144 146 147 145 140 134 130 129 129 130 130 133 135 136 135 134 133 131 128 125 123 123 123 121 119 117 118 120 122 122 121 119 116 114 112 110 108 106 102 96 92 90 88 88 87 83 68 49 36 39 54 72 92 207 253 259 259 260 262 265 271 283 292 274
135 137 139 141 143 145 145 144 137 129 125 124 126 128 129 130 132 132 132 131 131 129 127 124 121 119 117 117 115 114 114 115 118 119 118 116 113 111 109 108 107 106 105 102 96 92 91 91 90 88 83 73 45 22 12 13 359 325 277 260 258 260 264 267 272 274 274 268 268
137 138 140 142 144 144 142 137 129 124 122 124 126 127 127 128 128 127 127 128 127 126 123 121 120 117 114 111 110 110 111 113 115 116 115 113 111 109 106 105 105 104 104 103 99 98 97 98 99 98 95 89 66 22 349 333 314 297 282 270 265 263 264 267 269 267 262 256 260
138 140 142 143 143 140 135 129 125 123 124 126 126 125 124 124 123 124 124 125 125 123 121 118 117 115 112 109 107 108 110 113 114 114 114 112 109 106 103 100 98 96 96 96 96 97 97 96 98 99 100 101 99 353 291 289 284 280 276 272 269 266 264 266 264 261 258 258 258
138 140 142 142 139 134 129 124 124 124 124 124 123 122 121 121 120 120 120 122 122 121 119 115 113 111 109 108 107 108 110 112 112 111 109 108 105 102 99 95 91 87 84 83 83 82 80 75 72 71 71 70 57 294 277 276 274 272 270 270 269 268 265 265 261 256 250 252 255
138 140 140 139 134 129 124 123 123 123 123 121 120 119 118 118 118 118 118 119 120 118 116 113 110 108 106 106 107 107 107 107 106 104 102 100 99 98 96 94 90 86 82 79 76 72 69 61 53 45 36 20 352 320 301 289 281 277 273 271 269 268 267 265 260 254 247 244 249
137 138 137 133 127 124 122 122 122 121 119 117 117 117 116 117 117 117 118 119 117 114 112 111 109 106 104 102 102 101 100 99 98 97 96 95 95 95 96 95 93 90 86 82 77 70 62 53 42 32 20 360 339 321 307 296 289 283 278 274 270 267 264 262 260 257 253 247 249
135 133 129 122 119 119 119 120 118 116 114 113 113 113 114 114 115 116 117 117 114 110 107 106 105 103 101 99 98 97 95 93 92 93 93 92 92 92 94 95 94 91 85 77 68 59 52 43 32 21 7 353 337 322 313 306 301 297 294 291 287 281 275 270 266 261 258 254 256
128 122 116 112 113 115 117 117 115 113 111 111 111 111 111 112 112 113 113 112 108 104 101 99 98 98 98 98 98 96 94 91 89 90 91 91 90 90 91 93 92 86 78 69 62 54 46 36 25 14 3 352 343 336 332 331 329 327 325 322 318 313 308 302 293 283 273 268 274
114 109 107 109 112 114 115 116 115 114 113 112 111 111 111 111 111 110 109 106 102 99 97 95 94 94 95 96 97 96 95 93 91 91 91 93 94 93 92 91 88 82 77 70 64 58 50 37 23 11 1 353 348 344 342 342 341 339 336 331 327 324 321 316 313 309 303 299 297
105 106 108 112 115 116 117 117 117 116 114 113 113 113 112 112 110 108 104 100 97 96 94 93 93 93 94 94 96 97 98 98 98 96 95 95 97 97 95 91 87 84 82 78 73 67 59 46 27 9 358 352 347 343 341 341 339 336 332 328 324 320 318 315 313 311 308 304 300
107 110 113 117 118 119 119 118 117 115 114 114 114 113 112 110 107 104 100 96 94 93 93 93 93 93 94 94 95 97 98 100 101 101 100 98 97 97 95 91 90 88 86 83 75 68 58 44 30 12 357 348 342 339 337 335 333 329 325 321 317 314 311 308 305 302 298 293 291
113 116 119 120 120 119 118 117 115 114 113 113 112 111 108 106 103 100 97 95 94 94 93 93 94 94 94 93 92 91 92 93 96 98 99 98 94 91 90 91 90 88 85 81 71 60 46 28 13 4 357 353 345 340 334 329 324 321 318 314 310 306 302 298 294 291 287 284 287
118 120 121 121 119 118 116 115 114 113 113 112 110 107 105 103 101 99 97 96 96 95 94 92 93 92 92 89 88 86 85 84 85 88 90 91 89 87 87 90 92 92 88 82 70 57 38 17 2 355 352 358 356 344 332 321 316 313 310 306 302 298 293 288 284 281 282 289 305
121 122 121 119 117 116 115 114 114 113 112 111 109 106 105 103 101 100 98 98 96 95 92 90 89 88 87 86 86 86 85 84 84 85 86 86 85 85 85 89 94 97 95 87 71 54 34 12 358 349 344 345 352 344 327 315 310 308 305 302 299 295 292 288 283 281 283 300 316
122 121 120 118 117 116 116 115 115 114 112 110 109 107 106 105 103 101 100 98 96 94 93 91 90 89 88 89 89 88 88 87 87 87 87 85 83 80 83 89 97 101 99 90 73 53 30 10 357 346 341 341 344 342 328 315 309 306 303 301 298 296 293 290 288 286 287 299 312
120 120 119 119 119 118 118 117 115 114 112 110 110 109 108 105 103 101 99 97 96 95 96 97 96 95 95 96 95 94 92 90 87 84 81 78 74 72 76 91 105 109 104 92 72 50 28 9 356 346 340 338 339 338 327 315 308 304 300 297 293 289 287 285 283 282 282 289 301
117 117 117 117 118 118 118 117 115 114 112 111 109 108 105 102 100 98 97 96 96 96 96 97 98 99 100 101 100 99 96 91 83 76 71 68 66 63 67 90 109 112 108 95 71 45 24 8 357 347 340 336 338 336 326 315 307 300 294 289 284 281 279 277 275 273 270 274 283
116 115 115 116 117 117 117 116 114 112 110 108 106 103 101 98 97 96 96 97 97 98 98 98 100 102 102 101 100 96 92 85 79 74 71 69 65 57 55 86 109 112 109 99 67 39 19 7 357 348 340 337 339 336 327 313 304 295 287 282 278 276 275 274 271 267 263 262 261
117 117 117 117 118 117 115 113 110 108 106 104 102 101 99 98 96 95 96 97 99 101 102 103 104 103 102 98 95 92 89 87 87 87 88 90 86 70 47 66 103 110 111 98 61 32 16 6 356 347 342 340 341 338 327 312 302 294 287 282 280 279 278 277 274 269 265 262 257
121 121 120 119 117 114 110 107 105 104 103 101 100 98 98 97 96 96 97 98 99 99 99 98 98 97 95 93 93 95 99 105 109 113 114 108 94 68 44 39 98 112 112 95 55 27 13 4 354 347 343 344 344 337 323 311 302 296 291 289 289 290 290 289 285 282 283 287 291
125 123 120 116 113 110 107 104 103 102 101 99 98 96 95 95 96 97 99 100 98 96 93 90 89 90 93 98 104 112 119 124 126 123 114 95 77 57 39 24 72 105 107 89 49 22 10 1 352 347 345 348 345 335 320 311 305 300 298 297 298 300 300 302 307 319 335 346 351
119 116 113 111 108 106 105 104 103 101 100 99 98 97 96 96 97 98 101 101 100 98 96 95 97 101 107 113 118 122 125 123 119 111 101 88 76 61 42 20 27 58 74 70 40 19 7 358 349 346 346 351 345 332 320 313 308 305 304 305 305 304 306 313 331 349 360 2 358
109 109 108 108 107 106 105 104 103 102 101 100 100 100 100 100 100 101 103 105 105 105 107 110 113 116 120 121 118 112 106 102 100 97 94 90 83 72 53 22 1 360 12 26 22 12 3 355 348 346 348 354 347 333 323 316 312 310 309 308 306 306 310 326 349 359 360 356 346
109 111 112 112 110 108 106 104 104 103 104 104 104 104 105 105 106 107 109 110 110 112 113 114 116 117 117 116 111 106 102 100 98 95 91 88 89 84 70 34 352 341 345 358 6 5 360 355 348 347 350 360 350 336 325 320 316 313 311 309 309 313 323 342 355 357 352 343 335
118 118 117 114 111 108 105 104 104 105 107 107 107 107 107 108 110 113 114 113 111 111 111 108 107 106 108 112 118 121 124 122 117 113 107 99 99 98 94 71 333 323 335 353 3 3 360 356 348 347 350 2 354 338 327 322 317 314 312 313 318 326 335 345 350 348 340 329 326
121 118 114 109 107 106 105 105 106 107 108 108 108 107 107 107 108 110 109 107 106 105 105 104 103 102 103 109 118 124 130 134 134 131 128 126 119 117 120 138 227 302 343 4 8 5 360 354 347 346 350 4 360 343 329 324 320 317 317 321 331 337 340 341 341 337 329 320 320
114 110 107 105 105 105 106 107 106 106 105 105 105 106 106 105 104 102 101 99 100 101 102 105 106 104 102 96 98 102 111 125 143 143 140 140 136 136 140 158 174 112 23 21 12 3 356 351 346 345 348 357 3 351 337 328 325 323 323 327 336 339 338 335 332 327 322 315 312